Location: Bussy-Saint-Georges
(48.8410°N, 2.7017°E)
Time: 16:13:11
(UTC+00:00)

X-37B - Pass Details

Date: 18 October 2021
Orbit: 330 x 341 km, 45.0° (Epoch: 20 November)

Event Time Altitude Azimuth Distance (km) Brightness Sun altitude
Rises 18:46:28 0° 254° (WSW) 2,123 5.5 -19.3°
Reaches altitude 10° 18:48:33 10° 246° (WSW) 1,284 4.1 -19.6°
Enters shadow 18:50:34 31° 211° (SSW) 621 1.8 -20.0°
